Location: Drocourt
(49.0571°N, 1.7669°E)
Time: 14:37:30
(UTC+00:00)

SR - Pass Details

Date: 18 April 2024
Orbit: 579 x 859 km, 66.7° (Epoch: 28 May)

Event Time Altitude Azimuth Distance (km) Brightness Sun altitude
Rises 01:30:46 0° 187° (S) 3,364 - -26.2°
Reaches altitude 10° 01:33:26 10° 179° (S) 2,403 - -26.0°
Exits shadow 01:37:48 34° 129° (SE) 1,272 ? -25.6°
Maximum altitude 01:38:25 35° 115° (ESE) 1,241 ? -25.6°
Drops below altitude 10° 01:43:07 10° 51° (NE) 2,263 ? -25.2°
Sets 01:45:33 0° 42° (NE) 3,142 ? -25.0°
